Location: B?ogocice
(50.2413°N, 20.2361°E)
Time: 23:25:02
(UTC+00:00)

Cosmos 2297 Rocket - Pass Details

Date: 15 June 2024
Orbit: 838 x 843 km, 71.0° (Epoch: 18 July)

Event Time Altitude Azimuth Distance (km) Brightness Sun altitude
Exits shadow 00:24:34 - 254° (WSW) 3,002 4.7 -12.9°
Reaches altitude 10° 00:26:17 10° 263° (W) 2,456 4.3 -12.7°
Maximum altitude 00:30:54 25° 318° (NW) 1,628 3.9 -12.4°
Drops below altitude 10° 00:35:33 10° 14° (NNE) 2,469 6.0 -12.1°
Sets 00:38:27 0° 27° (NNE) 3,408 7.6 -11.9°
